Location: Moonridge Observatory
(39.2268°N, 77.7914°W)
Time: 17:47:30
(UTC-05:00)

Amateur Radio Satellites - All Passes

Search period start: 28 November 2014 17:17
Search period end: 29 November 2014 17:17
Location: Moonridge Observatory, 39.2268°N, 77.7914°W

Satellite Date Start Highest point End Downlink Frequencies (MHz)
Time Altitude Azimuth
GONETS M04 28 Nov 17:25:15 17:30:30 17° 62° (ENE) 17:35:41
Cubesat XI-IV 28 Nov 17:29:37 17:34:56 69° 74° (ENE) 17:40:17 437.490
PCSat 28 Nov 17:52:18 17:55:57 19° 105° (ESE) 17:59:37 145.827
VERMONT LUNAR 28 Nov 17:53:30 17:57:03 51° 201° (SSW) 18:00:34 437.305
PHONESAT 2.4 28 Nov 17:54:07 17:57:49 67° 198° (SSW) 18:01:30 2401.200-2431.200
MOZHAYETS 4 28 Nov 18:00:46 18:04:53 32° 290° (WNW) 18:09:00
PRISM 28 Nov 18:09:59 18:14:10 57° 101° (E) 18:18:18 437.425
CUTE-I 28 Nov 18:10:22 18:15:34 51° 260° (W) 18:20:48 437.470
CUBESAT XI-V 28 Nov 18:13:24 18:17:11 24° 95° (E) 18:20:57 437.345
STRAND 1 28 Nov 18:15:01 18:19:08 24° 95° (E) 18:23:13 437.568
JAS-2 28 Nov 18:15:08 18:20:46 22° 270° (W) 18:26:33 435.910
HO-68 28 Nov 18:24:56 18:28:40 15° 54° (NE) 18:32:23 435.675
BEESAT 3 28 Nov 18:31:24 18:34:25 20° 111° (ESE) 18:37:28 437.485
BEESAT 2 28 Nov 18:48:42 18:52:13 28° 113° (ESE) 18:55:47 435.950
Cubesat XI-IV 28 Nov 19:12:47 19:15:29 14° 269° (W) 19:18:13 437.490
GONETS M04 28 Nov 19:19:50 19:28:43 84° 83° (E) 19:37:30
AIST 1 28 Nov 19:22:54 19:27:18 82° 96° (E) 19:31:45
COMPASS 1 28 Nov 19:29:51 19:32:14 15° 66° (ENE) 19:34:38 437.405
CANX-2 28 Nov 19:32:45 19:36:09 24° 69° (ENE) 19:39:34 2200.000
VERMONT LUNAR 28 Nov 19:33:24 19:35:00 13° 216° (SW) 19:36:35 437.305
PCSat 28 Nov 19:33:33 19:38:52 57° 302° (WNW) 19:44:13 145.827
PHONESAT 2.4 28 Nov 19:33:37 19:36:12 18° 213° (SSW) 19:38:47 2401.200-2431.200
RS-15 28 Nov 19:34:25 19:41:41 19° 345° (NNW) 19:49:04 29.354- 29.394
AIST 2 28 Nov 19:35:49 19:39:49 44° 116° (ESE) 19:43:54 435.215
GOMX 1 28 Nov 19:46:31 19:50:15 24° 70° (ENE) 19:53:49 467.674
PRISM 28 Nov 19:47:29 19:49:12 12° 297° (WNW) 19:50:55 437.425
DX 1 28 Nov 19:50:06 19:51:26 11° 62° (ENE) 19:52:47 434.975-435.025
CUBESAT XI-V 28 Nov 19:50:32 19:54:37 31° 290° (WNW) 19:58:40 437.345
STRAND 1 28 Nov 19:53:43 19:58:23 37° 291° (WNW) 20:03:02 437.568
CUTE 1.7 + AOD 2 28 Nov 20:06:10 20:10:15 53° 74° (ENE) 20:14:23 437.475
HO-68 28 Nov 20:08:03 20:15:13 79° 72° (ENE) 20:22:26 435.675
BEESAT 3 28 Nov 20:08:36 20:12:23 35° 308° (NW) 20:16:15 437.485
ZACube-1 28 Nov 20:21:44 20:22:36 11° 63° (ENE) 20:23:28 437.345
BEESAT 2 28 Nov 20:26:56 20:30:27 27° 310° (NW) 20:34:02 435.950
DOVE 4 28 Nov 20:27:46 20:32:08 49° 74° (ENE) 20:36:18 437.250
BRITE-PL 28 Nov 20:29:03 20:34:02 85° 257° (WSW) 20:38:38 437.365/2234.400
VELOX 1 28 Nov 20:33:47 20:34:31 10° 62° (ENE) 20:35:15 145.980
SEEDS 28 Nov 20:35:14 20:39:25 81° 258° (WSW) 20:43:39 437.485
DELFI C3 28 Nov 20:36:28 20:40:02 30° 71° (ENE) 20:43:38 145.870
CINEMA 3 28 Nov 20:41:38 20:45:42 40° 73° (ENE) 20:49:39 145.822/145.860
UKube-1 28 Nov 20:44:21 20:48:27 42° 72° (ENE) 20:52:34 .
AAUSAT CUBESAT 2 28 Nov 20:45:55 20:50:04 82° 258° (WSW) 20:54:16 437.432
FUNcube-1 28 Nov 20:53:08 20:56:30 24° 69° (ENE) 20:59:51 145.935
Oscar 11 28 Nov 20:53:12 20:57:25 59° 74° (ENE) 21:01:40 145.826/435.025
AISAT 28 Nov 20:59:07 21:02:24 20° 67° (ENE) 21:05:41 437.250
COMPASS 1 28 Nov 21:03:38 21:07:36 43° 261° (W) 21:11:37 437.405
ISS 28 Nov 21:04:29 21:06:02 13° 129° (SE) 21:07:36 145.825
CANX-2 28 Nov 21:08:26 21:11:59 26° 264° (W) 21:15:33 2200.000
HUMSAT D 28 Nov 21:15:16 21:18:41 25° 70° (ENE) 21:22:05 437.325/437.525
AIST 2 28 Nov 21:15:33 21:18:40 20° 314° (NW) 21:21:50 435.215
GONETS M04 28 Nov 21:18:51 21:24:19 19° 282° (WNW) 21:29:46
DX 1 28 Nov 21:22:44 21:27:06 68° 258° (WSW) 21:31:28 434.975-435.025
PCSat 28 Nov 21:22:56 21:23:30 10° 322° (NW) 21:24:03 145.827
GOMX 1 28 Nov 21:24:08 21:28:16 30° 263° (W) 21:32:12 467.674
UWE-3 28 Nov 21:26:04 21:30:16 70° 76° (ENE) 21:34:25 435.000/436.395/437.385
CUBEBUG 2 28 Nov 21:32:15 21:36:30 84° 257° (WSW) 21:40:41 437.445
CUTE 1.7 + AOD 2 28 Nov 21:44:57 21:46:30 12° 269° (W) 21:48:04 437.475
RS-15 28 Nov 21:51:57 21:59:59 22° 22° (NNE) 22:08:11 29.354- 29.394
ZACube-1 28 Nov 21:54:17 21:58:27 64° 259° (W) 22:02:35 437.345
HO-68 28 Nov 21:59:01 22:03:36 18° 269° (W) 22:08:12 435.675
ANTELSAT 28 Nov 22:00:55 22:04:20 21° 95° (E) 22:07:47 437.575/2403.000
VELOX 1 28 Nov 22:05:59 22:10:27 77° 257° (WSW) 22:14:57 145.980
DOVE 4 28 Nov 22:07:46 22:10:07 14° 267° (W) 22:12:25 437.250
NANOSAT C BR1 28 Nov 22:09:08 22:11:43 16° 93° (E) 22:14:17 145.865
DELFI C3 28 Nov 22:12:25 22:15:22 19° 266° (W) 22:18:20 145.870
BUGSAT 1 28 Nov 22:14:16 22:16:22 14° 92° (E) 22:18:27 437.445
ESTCUBE 1 28 Nov 22:15:44 22:20:07 49° 73° (ENE) 22:24:32 437.505/2401.250
CUSAT 1 28 Nov 22:17:02 22:20:30 18° 74° (ENE) 22:24:33 437.405
50 SAT 28 Nov 22:17:53 22:21:53 68° 259° (WSW) 22:25:54 437.505
QB50P1 28 Nov 22:18:59 22:22:10 21° 95° (E) 22:25:19 145.935-145.965
CINEMA 3 28 Nov 22:20:27 22:23:04 16° 267° (W) 22:25:39 145.822/145.860
UKube-1 28 Nov 22:22:06 22:24:47 16° 267° (W) 22:27:29 .
FUNcube-1 28 Nov 22:29:17 22:32:46 25° 264° (W) 22:36:15 145.935
Oscar 11 28 Nov 22:32:47 22:33:57 11° 270° (W) 22:35:08 145.826/435.025
AISAT 28 Nov 22:34:40 22:38:47 36° 262° (W) 22:42:55 437.250
CUBEBUG 1 28 Nov 22:35:26 22:39:52 79° 76° (ENE) 22:44:19 437.445
ISS 28 Nov 22:39:03 22:42:18 62° 324° (NW) 22:45:34 145.825
POPSAT HIP 1 28 Nov 22:43:36 22:47:34 39° 98° (E) 22:51:31 437.405
HUMSAT D 28 Nov 22:51:07 22:54:26 23° 265° (W) 22:57:45 437.325/437.525
TIGRISAT 28 Nov 22:52:10 22:56:38 75° 102° (ESE) 23:01:12 435.000
DANDE 28 Nov 22:55:43 23:00:09 32° 78° (ENE) 23:05:50 436.750
UNISAT 6 28 Nov 23:07:38 23:12:06 73° 285° (WNW) 23:16:40 437.425
AUBIESAT-1 28 Nov 23:11:33 23:13:21 12° 56° (NE) 23:15:11 437.475
M-CUBED/EXP-1 PRIME 28 Nov 23:18:08 23:20:42 16° 58° (ENE) 23:23:24 437.505
POLYITAN 1 28 Nov 23:18:56 23:23:10 77° 284° (WNW) 23:27:24 437.675
QB50P2 28 Nov 23:19:41 23:23:55 76° 284° (WNW) 23:28:08 145.880/145.840
DUCHIFAT 1 28 Nov 23:23:38 23:27:50 69° 285° (WNW) 23:32:01 145.980
TISAT 1 28 Nov 23:27:07 23:31:22 74° 76° (ENE) 23:35:38 437.305
ANTELSAT 28 Nov 23:37:07 23:41:11 35° 289° (WNW) 23:45:20 437.575/2403.000
NANOSAT C BR1 28 Nov 23:43:49 23:47:46 40° 288° (WNW) 23:51:42 145.865
SPROUT 28 Nov 23:46:50 23:51:09 77° 258° (WSW) 23:55:29 437.525
BUGSAT 1 28 Nov 23:48:14 23:52:05 41° 288° (WNW) 23:55:53 437.445
MaSat-1 28 Nov 23:53:26 23:55:45 58° 65° (ENE) 23:58:08 437.345
QB50P1 28 Nov 23:54:22 23:58:05 30° 290° (WNW) 00:01:47 145.935-145.965
ESTCUBE 1 28 Nov 23:54:41 23:57:15 15° 268° (W) 23:59:50 437.505/2401.250
CUSAT 1 28 Nov 23:58:32 00:03:36 61° 263° (W) 00:10:20 437.405
RS-15 29 Nov 00:04:26 00:15:29 58° 51° (NE) 00:26:58 29.354- 29.394
ITUPSAT 1 29 Nov 00:05:25 00:09:31 28° 68° (ENE) 00:13:37 437.325
SWISSCUBE 29 Nov 00:14:40 00:19:06 38° 70° (ENE) 00:23:34 437.505
JUGNU 29 Nov 00:16:25 00:17:40 11° 182° (S) 00:18:54 437.505
ISS 29 Nov 00:17:35 00:19:29 14° 342° (NNW) 00:21:22 145.825
POPSAT HIP 1 29 Nov 00:20:27 00:23:10 17° 294° (WNW) 00:25:53 437.405
TIGRISAT 29 Nov 00:31:50 00:32:48 11° 297° (WNW) 00:33:46 435.000
SRMSAT 29 Nov 00:33:34 00:34:31 10° 175° (S) 00:35:28 437.500
YUBILEINY 29 Nov 00:36:28 00:41:25 17° 77° (ENE) 00:46:22 435.215
DANDE 29 Nov 00:39:05 00:43:34 31° 265° (W) 00:49:16 436.750
AUBIESAT-1 29 Nov 00:43:32 00:47:38 69° 254° (WSW) 00:52:08 437.475
BEESAT 29 Nov 00:44:38 00:49:24 73° 75° (ENE) 00:54:12 436.000
M-CUBED/EXP-1 PRIME 29 Nov 00:51:14 00:55:14 51° 256° (WSW) 00:59:37 437.505
ITAMSAT 1 29 Nov 01:06:41 01:07:52 11° 89° (E) 01:09:03 435.822/435.867
STARS 29 Nov 01:10:27 01:13:26 18° 66° (ENE) 01:16:25 437.465
Oscar 19 29 Nov 01:42:21 01:47:32 73° 102° (ESE) 01:52:42 437.125/150
ITUPSAT 1 29 Nov 01:43:09 01:47:19 29° 264° (W) 01:51:31 437.325
SWISSCUBE 29 Nov 01:53:27 01:57:04 21° 266° (W) 02:00:43 437.505
Gurwin Techsat 1B 29 Nov 01:55:21 01:59:17 21° 93° (E) 02:03:12 435.225
KKS-1 29 Nov 01:56:13 02:00:40 85° 76° (ENE) 02:05:08 437.445
SO-50 29 Nov 02:16:21 02:20:20 32° 113° (ESE) 02:24:26 436.795
RS-15 29 Nov 02:17:16 02:27:30 42° 252° (WSW) 02:38:10 29.354- 29.394
SRMSAT 29 Nov 02:21:52 02:22:45 10° 185° (S) 02:23:38 437.500
BEESAT 29 Nov 02:26:36 02:27:44 11° 270° (W) 02:28:53 436.000
YUBILEINY 29 Nov 02:28:05 02:36:54 90° 96° (E) 02:45:44 435.215
PCSat 29 Nov 02:40:34 02:43:42 15° 43° (NE) 02:46:49 145.827
ITAMSAT 1 29 Nov 02:42:45 02:47:56 81° 285° (WNW) 02:53:06 435.822/435.867
STARS 29 Nov 02:45:29 02:49:36 40° 261° (W) 02:53:45 437.465
BEESAT 3 29 Nov 02:52:42 02:54:34 13° 42° (NE) 02:56:26 437.485
HORYU 2 29 Nov 03:07:33 03:11:51 43° 99° (E) 03:16:08 437.375
BEESAT 2 29 Nov 03:10:17 03:13:00 16° 45° (NE) 03:15:41 435.950
AO-7 29 Nov 03:15:30 03:21:55 24° 94° (E) 03:28:17 29.400- 29.500
Oscar 19 29 Nov 03:23:37 03:26:14 14° 299° (WNW) 03:28:50 437.125/150
MOZHAYETS 4 29 Nov 03:25:29 03:28:53 21° 67° (ENE) 03:32:18
ISS 29 Nov 03:32:29 03:34:57 19° 23° (NNE) 03:37:25 145.825
Gurwin Techsat 1B 29 Nov 03:34:24 03:39:27 46° 289° (WNW) 03:44:29 435.225
SO-50 29 Nov 03:56:57 04:00:52 28° 311° (NW) 04:04:55 436.795
AIST 2 29 Nov 03:59:09 04:02:41 24° 49° (NE) 04:06:10 435.215
PCSat 29 Nov 04:22:25 04:27:53 90° 243° (WSW) 04:33:18 145.827
BEESAT 3 29 Nov 04:29:09 04:33:21 80° 240° (WSW) 04:37:29 437.485
YUBILEINY 29 Nov 04:29:17 04:34:55 18° 297° (WNW) 04:40:35 435.215
HORYU 2 29 Nov 04:45:12 04:48:10 18° 295° (WNW) 04:51:08 437.375
BEESAT 2 29 Nov 04:47:30 04:51:38 55° 243° (WSW) 04:55:41 435.950
O/OREOS (USA 219) 29 Nov 04:56:38 05:00:55 46° 106° (ESE) 05:05:12 437.305
PRISM 29 Nov 04:59:57 05:03:49 37° 71° (ENE) 05:07:44 437.425
MOZHAYETS 4 29 Nov 05:01:35 05:05:50 37° 263° (W) 05:10:09
AO-7 29 Nov 05:06:59 05:15:18 71° 291° (WNW) 05:23:35 29.400- 29.500
ISS 29 Nov 05:08:36 05:11:52 67° 221° (SW) 05:15:08 145.825
CUBESAT XI-V 29 Nov 05:16:13 05:19:52 23° 67° (ENE) 05:23:31 437.345
JAS-2 29 Nov 05:24:46 05:31:40 73° 102° (ESE) 05:37:41 435.910
STRAND 1 29 Nov 05:29:49 05:34:21 32° 68° (ENE) 05:38:53 437.568
AIST 1 29 Nov 05:32:28 05:35:31 18° 73° (ENE) 05:38:31
AIST 2 29 Nov 05:37:29 05:41:22 34° 246° (WSW) 05:45:12 435.215
Cubesat XI-IV 29 Nov 05:48:33 05:53:10 29° 96° (E) 05:57:45 437.490
PCSat 29 Nov 06:09:29 06:10:26 10° 259° (WSW) 06:11:23 145.827
GONETS M04 29 Nov 06:26:20 06:32:00 19° 78° (ENE) 06:37:39
CUTE-I 29 Nov 06:28:28 06:33:47 70° 102° (ESE) 06:39:03 437.470
PRISM 29 Nov 06:36:44 06:39:30 17° 266° (W) 06:42:18 437.425
O/OREOS (USA 219) 29 Nov 06:37:36 06:40:33 17° 303° (WNW) 06:43:31 437.305
CUBESAT XI-V 29 Nov 06:52:45 06:57:04 36° 263° (W) 07:01:26 437.345
AO-7 29 Nov 07:02:07 07:06:37 16° 311° (NW) 07:11:07 29.400- 29.500
STRAND 1 29 Nov 07:09:05 07:13:29 29° 264° (W) 07:17:55 437.568
AIST 1 29 Nov 07:09:20 07:13:17 34° 269° (W) 07:17:11
JAS-2 29 Nov 07:11:12 07:15:48 19° 302° (WNW) 07:20:04 435.910
Cubesat XI-IV 29 Nov 07:28:31 07:33:14 33° 292° (WNW) 07:37:55 437.490
HO-68 29 Nov 07:39:31 07:43:07 14° 89° (E) 07:46:42 435.675
CUTE 1.7 + AOD 2 29 Nov 07:56:17 07:56:25 10° 90° (E) 07:56:32 437.475
CUTE-I 29 Nov 08:10:17 08:13:14 15° 299° (WNW) 08:16:10 437.470
GONETS M04 29 Nov 08:18:49 08:27:38 82° 277° (W) 08:36:33
SEEDS 29 Nov 08:22:06 08:25:07 19° 93° (E) 08:28:07 437.485
DOVE 4 29 Nov 08:29:27 08:31:25 13° 92° (E) 08:33:24 437.250
AAUSAT CUBESAT 2 29 Nov 08:31:47 08:34:38 18° 93° (E) 08:37:29 437.432
BRITE-PL 29 Nov 08:35:15 08:38:53 28° 97° (E) 08:42:35 437.365/2234.400
Oscar 11 29 Nov 08:43:57 08:45:32 12° 91° (E) 08:47:07 145.826/435.025
COMPASS 1 29 Nov 08:48:52 08:52:40 31° 97° (E) 08:56:27 437.405
CANX-2 29 Nov 08:54:18 08:58:33 55° 100° (E) 09:02:46 2200.000
ANTELSAT 29 Nov 09:00:26 09:03:04 16° 66° (ENE) 09:05:42 437.575/2403.000
NANOSAT C BR1 29 Nov 09:02:49 09:04:15 12° 63° (ENE) 09:05:42 145.865
QB50P1 29 Nov 09:12:10 09:14:35 15° 65° (ENE) 09:16:59 145.935-145.965
DX 1 29 Nov 09:13:07 09:16:28 22° 95° (E) 09:19:48 434.975-435.025
UWE-3 29 Nov 09:18:27 09:20:57 15° 93° (E) 09:23:29 435.000/436.395/437.385
HO-68 29 Nov 09:24:28 09:31:41 89° 106° (ESE) 09:38:51 435.675
CUBEBUG 2 29 Nov 09:25:08 09:28:25 21° 95° (E) 09:31:45 437.445
GOMX 1 29 Nov 09:26:07 09:30:19 80° 102° (ESE) 09:34:41 467.674
CUTE 1.7 + AOD 2 29 Nov 09:28:28 09:32:44 64° 285° (WNW) 09:37:00 437.475
POPSAT HIP 1 29 Nov 09:36:08 09:39:43 27° 69° (ENE) 09:43:17 437.405
ZACube-1 29 Nov 09:44:31 09:48:05 25° 96° (E) 09:51:41 437.345
TIGRISAT 29 Nov 09:50:21 09:54:31 56° 74° (ENE) 09:58:41 435.000
DELFI C3 29 Nov 09:53:03 09:57:10 64° 101° (E) 10:01:16 145.870
SEEDS 29 Nov 09:57:08 10:01:02 35° 289° (WNW) 10:04:55 437.485
VELOX 1 29 Nov 09:58:51 10:02:16 22° 95° (E) 10:05:39 145.980
50 SAT 29 Nov 10:00:51 10:03:39 18° 94° (E) 10:06:27 437.505
DOVE 4 29 Nov 10:05:21 10:09:26 49° 286° (WNW) 10:13:39 437.250
UNISAT 6 29 Nov 10:05:58 10:10:14 88° 75° (ENE) 10:14:32 437.425
AAUSAT CUBESAT 2 29 Nov 10:06:32 10:10:26 36° 288° (WNW) 10:14:19 437.432
UKube-1 29 Nov 10:09:09 10:13:31 88° 285° (WNW) 10:17:50 .
POLYITAN 1 29 Nov 10:11:13 10:15:26 70° 75° (ENE) 10:19:40 437.675
QB50P2 29 Nov 10:11:43 10:15:57 71° 75° (ENE) 10:20:12 145.880/145.840
ESTCUBE 1 29 Nov 10:12:17 10:13:39 11° 90° (E) 10:15:01 437.505/2401.250
BRITE-PL 29 Nov 10:14:08 10:17:17 21° 291° (WNW) 10:20:29 437.365/2234.400
CINEMA 3 29 Nov 10:14:12 10:18:26 66° 285° (WNW) 10:22:50 145.822/145.860
DUCHIFAT 1 29 Nov 10:15:17 10:19:32 76° 76° (ENE) 10:23:46 145.980
Oscar 11 29 Nov 10:17:46 10:22:02 57° 286° (WNW) 10:26:18 145.826/435.025
FUNcube-1 29 Nov 10:18:00 10:22:15 61° 101° (E) 10:26:33 145.935
GONETS M04 29 Nov 10:20:50 10:25:55 16° 298° (WNW) 10:31:01
COMPASS 1 29 Nov 10:25:00 10:28:12 21° 292° (WNW) 10:31:24 437.405
AISAT 29 Nov 10:26:46 10:31:01 45° 99° (E) 10:35:14 437.250
CUBEBUG 1 29 Nov 10:27:12 10:29:49 16° 92° (E) 10:32:25 437.445
CANX-2 29 Nov 10:32:02 10:34:00 13° 296° (WNW) 10:35:58 2200.000
NANOSAT C BR1 29 Nov 10:35:24 10:39:37 62° 259° (W) 10:43:49 145.865
ANTELSAT 29 Nov 10:35:30 10:39:32 41° 261° (W) 10:43:35 437.575/2403.000
HUMSAT D 29 Nov 10:35:51 10:39:59 58° 101° (E) 10:44:09 437.325/437.525
BUGSAT 1 29 Nov 10:37:03 10:41:17 72° 258° (WSW) 10:45:30 437.445
QB50P1 29 Nov 10:46:00 10:50:05 46° 261° (W) 10:54:11 145.935-145.965
SO-50 29 Nov 10:48:36 10:52:42 26° 48° (NE) 10:56:49 436.795
DX 1 29 Nov 10:48:54 10:52:44 31° 290° (WNW) 10:56:32 434.975-435.025
UWE-3 29 Nov 10:53:37 10:57:41 44° 287° (WNW) 11:01:50 435.000/436.395/437.385
CUBEBUG 2 29 Nov 11:01:21 11:05:09 31° 289° (WNW) 11:09:02 437.445
POPSAT HIP 1 29 Nov 11:12:07 11:15:34 24° 265° (W) 11:19:01 437.405
HO-68 29 Nov 11:14:01 11:18:26 18° 305° (NW) 11:22:50 435.675
TISAT 1 29 Nov 11:15:25 11:17:14 13° 92° (E) 11:19:03 437.305
ZACube-1 29 Nov 11:20:49 11:24:23 26° 290° (WNW) 11:28:00 437.345
Oscar 19 29 Nov 11:23:12 11:24:44 11° 60° (ENE) 11:26:16 437.125/150
TIGRISAT 29 Nov 11:30:27 11:31:38 11° 269° (W) 11:32:48 435.000
DELFI C3 29 Nov 11:30:58 11:31:55 11° 297° (WNW) 11:32:52 145.870
VELOX 1 29 Nov 11:34:58 11:38:53 32° 290° (WNW) 11:42:47 145.980
50 SAT 29 Nov 11:35:21 11:39:01 33° 289° (WNW) 11:42:42 437.505
SPROUT 29 Nov 11:35:45 11:38:54 20° 94° (E) 11:42:03 437.525
ESTCUBE 1 29 Nov 11:46:27 11:50:57 64° 286° (WNW) 11:55:24 437.505/2401.250
FUNcube-1 29 Nov 11:56:31 11:58:07 12° 296° (WNW) 11:59:43 145.935
CUBEBUG 1 29 Nov 12:02:17 12:06:24 42° 288° (WNW) 12:10:29 437.445
AISAT 29 Nov 12:04:32 12:07:16 16° 295° (WNW) 12:10:00 437.250
DANDE 29 Nov 12:12:40 12:14:52 23° 95° (E) 12:17:01 436.750
HUMSAT D 29 Nov 12:13:43 12:15:19 12° 296° (WNW) 12:16:55 437.325/437.525
SWISSCUBE 29 Nov 12:19:22 12:20:06 10° 90° (E) 12:20:50 437.505
VERMONT LUNAR 29 Nov 12:21:18 12:24:18 25° 151° (SSE) 12:27:19 437.305
ITAMSAT 1 29 Nov 12:22:37 12:25:54 17° 63° (ENE) 12:29:12 435.822/435.867
PHONESAT 2.4 29 Nov 12:26:01 12:28:46 20° 148° (SSE) 12:31:32 2401.200-2431.200
SO-50 29 Nov 12:28:48 12:33:23 41° 245° (WSW) 12:37:58 436.795
AUBIESAT-1 29 Nov 12:29:30 12:31:30 12° 94° (E) 12:33:28 437.475
M-CUBED/EXP-1 PRIME 29 Nov 12:36:29 12:39:36 17° 96° (E) 12:42:38 437.505
YUBILEINY 29 Nov 12:39:59 12:48:10 42° 74° (ENE) 12:56:14 435.215
BEESAT 29 Nov 12:47:07 12:50:39 20° 94° (E) 12:54:10 436.000
TISAT 1 29 Nov 12:49:17 12:53:21 49° 287° (WNW) 12:57:24 437.305
Oscar 19 29 Nov 12:58:11 13:03:17 88° 256° (WSW) 13:08:26 437.125/150
SPROUT 29 Nov 13:11:14 13:15:03 32° 289° (WNW) 13:18:51 437.525
CUSAT 1 29 Nov 13:13:17 13:15:16 19° 285° (WNW) 13:17:16 437.405
Gurwin Techsat 1B 29 Nov 13:15:17 13:19:51 30° 67° (ENE) 13:24:26 435.225
MaSat-1 29 Nov 13:21:10 13:22:26 12° 108° (ESE) 13:23:39 437.345
ITUPSAT 1 29 Nov 13:44:13 13:49:03 79° 103° (ESE) 13:53:50 437.325
KKS-1 29 Nov 13:49:44 13:52:46 18° 94° (E) 13:55:48 437.445
SWISSCUBE 29 Nov 13:53:40 13:58:28 75° 285° (WNW) 14:03:13 437.505
VERMONT LUNAR 29 Nov 13:58:53 14:02:30 84° 164° (SSE) 14:06:07 437.305
ITAMSAT 1 29 Nov 13:59:45 14:04:53 60° 259° (W) 14:10:03 435.822/435.867
AUBIESAT-1 29 Nov 14:02:03 14:06:57 71° 290° (WNW) 14:11:38 437.475
PHONESAT 2.4 29 Nov 14:03:30 14:07:11 72° 163° (SSE) 14:10:54 2401.200-2431.200
HORYU 2 29 Nov 14:05:20 14:09:22 35° 70° (ENE) 14:13:25 437.375
M-CUBED/EXP-1 PRIME 29 Nov 14:10:06 14:14:55 54° 292° (WNW) 14:19:33 437.505
AO-7 29 Nov 14:13:29 14:20:29 32° 59° (ENE) 14:27:31 29.400- 29.500
BEESAT 29 Nov 14:24:10 14:28:38 39° 289° (WNW) 14:33:03 436.000
RS-15 29 Nov 14:27:47 14:37:29 38° 107° (ESE) 14:47:05 29.354- 29.394
STARS 29 Nov 14:36:32 14:40:40 39° 99° (E) 14:44:47 437.465
YUBILEINY 29 Nov 14:36:58 14:44:49 40° 273° (W) 14:52:40 435.215
MaSat-1 29 Nov 14:54:26 14:56:40 20° 299° (WNW) 14:58:45 437.345
Gurwin Techsat 1B 29 Nov 14:54:59 14:59:42 32° 263° (W) 15:04:27 435.225
O/OREOS (USA 219) 29 Nov 15:07:24 15:11:53 75° 68° (ENE) 15:16:22 437.305
ITUPSAT 1 29 Nov 15:24:44 15:26:15 11° 299° (WNW) 15:27:46 437.325
KKS-1 29 Nov 15:25:26 15:29:33 39° 289° (WNW) 15:33:40 437.445
JAS-2 29 Nov 15:33:57 15:40:43 34° 64° (ENE) 15:47:31 435.910
VERMONT LUNAR 29 Nov 15:37:26 15:41:03 71° 3° (N) 15:44:40 437.305
PHONESAT 2.4 29 Nov 15:42:20 15:46:03 70° 0° (N) 15:49:45 2401.200-2431.200
HORYU 2 29 Nov 15:42:55 15:46:08 20° 266° (W) 15:49:21 437.375
AO-7 29 Nov 16:04:40 16:12:47 59° 257° (WSW) 16:20:59 29.400- 29.500
CUTE-I 29 Nov 16:12:52 16:15:21 13° 60° (ENE) 16:17:50 437.470
STARS 29 Nov 16:13:50 16:16:51 18° 294° (WNW) 16:19:52 437.465
RS-15 29 Nov 16:38:29 16:49:15 60° 308° (NW) 17:00:05 29.354- 29.394
MOZHAYETS 4 29 Nov 16:57:35 17:02:10 55° 100° (E) 17:06:43
